Tracking 28902 objects as of 19-May-2024
HD Live streaming from Space Station
objects crossing your sky now

SL-6 R/B(2)

Track SL-6 R/B(2) now!
10-day predictions


NORAD ID: 12827
Int'l Code: 1981-088F
Perigee: 784.1 km
Apogee: 13,626.7 km
Inclination: 63.1 °
Period: 262.4 minutes
Semi major axis: 13576 km
RCS: 6.5355 m2 (large)
Launch date: September 11, 1981
Source: Commonwealth of Independent States (former USSR) (CIS)
Launch site: PLESETSK MISSILE AND SPACE COMPLEX (PKMTR)

Note: This is a ROCKET BODY
Your satellite tracking list
Your tracking list is empty




NASA's NSSDC Master Catalog

Two Line Element Set (TLE):
1 12827U 81088F   24139.40619610 -.00000041  00000-0  20090-3 0  9991
2 12827  63.0517  55.0071 4729733 224.5559  86.0238  5.48812691855468
Source of the keplerian elements: AFSPC